Погода в Сомерсет-Уэст

ЮАР     34°05′28″S   18°50′17″E
темп.,
°C
ветер,
м/с
пор.,
м/с
влажн.,
%
обл.,
%
осадки,
мм/ч
давл.,
гПа
погр.,
м
17 августа, ср
ср1723:00+11ссв71376100 0.1 1014616
02:00+11ссв71479100 1.0 1012661
05:00+11ссв71483100 0.3 1011730
08:00+12с81586100 0.6 1011919
11:00+12с91789100 0.8 10111100
14:00+13ссз9149384 3.1 1010980
17:00+14сз478334 3.6 1009476
20:00+12юз478797 8.8 1013388
18 августа, чт
чт1823:00+10юз248844 1.4 101573
02:00+10с338863 1.9 101552
05:00+10всв1196100 3.1 1015167
08:00+12ю6118894 9.4 1017632
11:00+12ююв4891100 4.9 1019629
14:00+13ю71184100 7.1 1019817
17:00+13ю71180100 0.4 1021696
20:00+12ю488196 0.5 1023267
19 августа, пт
пт1923:00+11ю347552 0.0 102456
02:00+9ююз22800 0.0 102415
05:00+8ссз118388 0.0 102417
08:00+9ссв468593 0.0 1025125
11:00+11с6881100 0.0 1026468
14:00+13ссз71079100 0.3 1024977
17:00+13ссз71181100 0.3 1024878
20:00+12з6108638 1.4 1025538
20 августа, сб
сб2023:00+10з488345 1.3 1026174
02:00+9зюз368083 2.1 1027159
05:00+10юз487791 0.4 1028197
08:00+10юз237186 0.5 102957
11:00+14юз455551 0.1 10301625
14:00+15юз445122 0.1 10281544
17:00+13зюз33554 0.0 10281040
20:00+9с32720 0.0 103020
21 августа, вс
вс2123:00+8ссв458019 0.0 103069
02:00+7ссв45814 0.0 102980
05:00+7ссв56840 0.0 1028101
08:00+7ссв46840 0.0 1028129
11:00+14ссз57660 0.0 1028741
14:00+16сз67585 0.0 1026940
17:00+14сз45721 0.0 1026598
20:00+10ссв33899 0.0 102727